EHI
0 0 0 0 0 0 0 0 0 0 0 1 2 5 6 6 9 11 14 18 21 23 25 27 32 36 38 36 32 28 22 14 11 11 9 7 6 5 3 1 2 4 6 6
0 0 0 0 0 0 0 0 0 0 0 1 3 5 6 7 10 14 16 19 21 24 28 30 34 38 39 37 34 29 22 14 11 10 9 7 6 6 4 2 1 3 5 6
0 0 0 0 0 0 0 0 0 0 0 1 3 4 6 8 13 18 19 19 21 25 30 35 38 42 42 39 35 29 21 14 12 12 11 10 8 7 5 2 1 3 4 4
0 0 0 0 0 0 0 0 0 0 0 0 1 2 5 9 14 19 19 19 21 25 31 37 40 44 43 39 34 28 20 15 13 13 13 12 10 6 4 3 2 3 3 4
0 0 0 0 0 0 0 0 0 0 0 0 0 1 3 7 12 16 18 19 22 26 31 35 39 43 41 36 32 26 20 15 13 12 12 11 9 6 4 4 4 4 5 6
0 0 0 0 0 0 0 0 0 0 0 0 0 0 1 4 7 11 15 19 23 27 30 32 37 40 38 33 30 26 21 15 12 10 9 8 7 6 6 5 5 5 7 8
0 0 0 0 0 0 0 0 0 0 0 0 0 0 0 2 5 10 15 21 26 30 31 32 35 37 37 35 33 28 23 18 13 10 8 6 6 6 6 6 6 6 8 8
0 0 0 0 0 0 0 0 0 0 0 0 0 0 1 4 8 13 18 24 29 34 35 35 36 39 41 40 36 30 25 21 16 12 8 6 5 5 6 7 9 10 10 10
0 0 0 0 0 0 0 0 0 0 0 0 0 0 3 8 12 17 23 28 32 35 36 36 38 42 45 44 38 32 27 23 20 16 11 8 6 6 8 10 13 14 13 12
0 0 0 0 0 0 0 0 0 0 0 0 0 0 3 8 13 20 25 29 30 31 33 36 37 41 44 43 39 33 28 25 23 20 16 12 11 11 11 12 13 13 12 11
0 0 0 0 0 0 0 0 0 0 0 0 0 1 3 7 13 20 25 26 25 26 29 33 35 37 40 41 39 36 31 28 26 23 19 15 14 14 13 12 11 11 10 9
0 0 0 0 0 0 0 0 0 0 0 0 1 2 4 8 13 19 23 24 23 22 25 30 33 35 37 38 38 36 32 28 25 21 18 16 15 14 13 12 10 10 9 8
0 0 0 0 0 0 0 0 0 0 0 0 1 2 4 9 14 18 22 23 21 20 23 28 32 33 34 35 35 34 31 27 22 18 16 15 14 12 11 10 10 10 10 9
0 0 0 0 0 0 0 0 0 0 0 0 0 1 3 8 13 17 19 20 20 20 22 26 30 31 31 30 30 31 29 25 20 17 15 13 12 11 10 9 9 11 12 13
0 0 0 0 0 0 0 0 0 0 0 0 0 2 4 6 9 13 17 20 21 21 21 24 27 29 29 27 26 27 26 23 18 15 14 12 12 11 9 8 9 10 12 13
0 0 0 0 0 0 0 0 0 0 0 0 1 4 6 7 8 13 18 21 22 22 22 24 26 27 27 25 24 24 23 21 18 17 15 14 14 12 10 9 9 9 10 9
0 0 0 0 0 0 0 0 1 1 0 0 2 4 7 8 11 15 19 20 20 20 23 25 26 26 26 25 23 22 22 22 22 21 19 17 16 15 12 11 10 9 9 8
0 0 0 0 0 0 0 0 1 1 0 1 3 4 5 8 12 16 17 18 18 18 20 23 25 25 23 22 23 23 22 23 24 24 22 20 19 18 15 12 10 9 9 9
0 0 0 0 0 0 0 0 1 1 1 1 3 5 6 8 11 14 15 16 17 16 16 18 20 21 20 19 20 21 20 19 21 22 23 22 21 20 18 14 12 10 9 10
0 0 0 0 0 0 0 0 1 1 1 1 3 6 7 8 9 11 14 16 16 15 15 16 17 17 16 15 15 16 15 15 16 18 21 22 21 19 19 16 13 12 12 12
0 0 0 0 0 0 1 1 1 1 1 1 3 6 7 8 9 10 13 15 16 16 16 16 15 12 11 10 10 11 11 12 13 16 19 20 19 18 17 16 15 14 13 12
0 0 0 0 0 0 1 2 2 1 1 2 4 6 8 10 13 13 14 14 15 16 17 17 14 9 7 7 9 10 10 11 12 15 17 16 16 16 16 15 14 13 12 11
0 0 0 1 1 1 2 3 3 3 4 4 4 6 10 13 16 17 16 15 14 15 16 16 14 11 8 8 10 11 11 10 11 12 12 12 12 13 13 12 10 11 11 11
0 0 1 2 3 3 4 4 4 4 5 4 4 5 9 12 15 17 16 14 14 14 14 14 14 12 10 10 12 13 13 12 11 9 9 9 9 10 11 10 9 9 10 10
0 0 1 3 4 5 4 4 4 4 4 3 3 5 8 11 13 15 14 12 12 12 12 13 12 10 8 8 10 12 14 14 13 11 9 8 8 8 9 9 8 8 8 8
0 0 1 2 3 4 4 4 4 4 3 3 4 5 7 11 13 13 12 11 11 11 12 12 11 8 6 6 8 11 13 14 13 12 10 8 8 8 8 9 8 7 6 6
Wind_Speed
2 2 4 8 7 7 5 4 4 6 3 3 4 4 8 9 8 9 8 9 9 9 8 9 10 11 10 8 8 7 6 5 4 3 3 2 2 1 1 1 2 2 2 3
3 5 10 9 7 5 5 4 4 4 2 3 3 3 6 8 11 12 12 11 10 9 8 9 9 9 9 9 8 7 6 5 5 3 3 2 2 2 1 1 1 2 2 3
6 10 7 5 6 6 5 5 5 4 3 1 3 1 2 3 4 7 9 10 10 13 13 11 10 9 9 9 8 7 6 5 5 4 3 2 2 2 1 1 0 1 2 2
6 8 5 5 7 6 5 7 6 4 2 1 2 2 4 5 4 7 9 9 10 11 11 11 11 10 10 9 8 7 6 5 5 5 4 5 4 3 2 2 1 1 1 1
6 5 4 6 7 5 6 5 3 2 3 0 1 2 6 2 5 7 9 11 11 11 12 12 12 11 10 9 8 7 6 5 5 5 5 5 3 2 2 2 2 1 0 1
8 6 4 5 5 3 3 3 5 5 5 1 3 3 5 6 10 9 8 10 11 11 11 11 10 9 9 8 8 7 6 5 5 5 5 5 5 4 3 2 2 1 0 0
7 7 4 2 2 4 3 6 5 5 4 5 4 2 8 8 9 11 11 11 10 11 11 10 11 10 10 10 9 8 7 6 5 5 5 5 5 5 5 4 3 2 1 0
2 7 5 2 5 4 2 8 7 4 3 5 3 4 7 6 5 6 7 8 10 10 10 10 11 11 11 11 10 9 8 6 5 5 5 4 4 3 3 3 3 3 2 2
4 6 6 3 3 6 3 3 8 7 2 1 3 4 6 2 3 5 5 7 9 10 10 10 10 10 10 10 10 10 9 7 6 6 5 4 4 4 3 3 3 2 2 2
6 3 6 5 3 1 5 6 6 5 4 2 3 3 4 3 3 4 6 7 7 8 8 8 8 9 9 10 9 9 9 8 7 6 5 5 4 4 4 3 3 3 2 2
5 3 5 3 0 3 0 2 5 5 5 5 2 7 6 7 5 7 7 6 7 9 9 8 8 8 9 8 8 8 8 7 6 6 5 4 4 4 3 3 3 3 2 2
5 6 2 5 5 3 4 4 7 5 3 4 4 8 5 5 4 6 7 7 6 8 8 8 7 8 7 8 8 8 7 7 7 6 5 5 4 4 3 3 3 3 3 3
5 7 2 7 7 4 1 0 3 5 5 4 4 6 3 3 4 5 6 7 6 7 7 7 6 6 7 7 8 7 7 7 6 6 5 4 4 4 3 3 2 2 2 2
7 5 7 8 7 3 2 3 1 5 4 4 5 5 3 2 3 4 5 6 7 7 8 7 6 5 5 5 6 7 6 6 6 6 5 5 4 4 4 3 3 3 2 2
6 3 3 4 3 1 2 4 1 2 6 7 7 7 8 7 7 6 7 6 7 7 7 8 7 6 6 5 4 5 6 6 6 6 5 5 5 4 3 3 3 2 2 3
4 3 1 2 2 3 3 4 2 1 3 4 5 4 5 4 4 5 7 8 8 7 7 7 7 7 7 6 5 4 4 5 6 5 5 4 4 3 3 3 3 2 2 2
2 3 3 2 2 4 4 3 1 0 1 4 5 5 5 5 6 7 7 7 7 7 8 8 6 5 5 5 5 5 4 4 5 5 4 4 4 4 4 3 3 3 3 3
4 3 3 1 2 2 6 3 3 3 1 1 4 4 6 6 5 4 5 7 7 6 7 7 6 5 3 4 4 4 4 4 4 4 4 4 4 4 3 3 3 3 3 3
5 6 3 3 2 3 4 4 1 3 2 1 6 6 5 5 7 3 1 6 7 7 7 6 6 6 5 5 4 4 3 3 2 3 4 4 4 4 4 4 4 3 3 3
5 6 5 3 3 3 4 6 1 5 1 2 5 8 6 6 4 3 3 5 6 5 5 5 5 5 5 4 5 5 3 3 3 3 3 4 4 4 5 5 4 3 3 4
4 4 3 3 2 3 5 6 4 3 5 2 2 5 5 3 4 4 3 4 5 6 5 5 6 5 4 4 5 4 2 3 4 3 2 3 3 4 4 4 4 4 3 3
2 2 1 2 2 4 6 4 2 4 1 2 3 4 6 6 5 3 4 4 5 5 4 4 4 4 3 4 5 4 3 3 2 2 2 2 3 3 3 3 3 3 3 4
1 4 4 5 5 5 2 2 1 3 4 2 3 4 6 6 5 4 4 4 4 3 3 3 4 4 3 3 5 5 4 3 2 2 2 2 2 2 2 3 3 3 3 3
3 2 3 2 1 1 2 3 3 3 4 3 4 5 5 5 4 3 4 4 4 2 2 2 3 3 3 3 3 4 4 3 3 3 2 2 1 2 2 2 3 3 3 3
3 1 2 1 2 2 3 2 2 3 4 4 4 4 4 5 4 3 3 3 3 2 2 2 2 3 3 3 2 3 3 3 3 2 2 2 1 2 1 1 2 3 4 5
2 2 3 4 5 3 2 2 2 3 2 3 4 3 3 3 3 3 3 2 2 2 2 1 2 2 2 2 2 2 2 3 3 2 2 2 2 2 2 2 2 3 3 5
Wind_Direction
291 98 225 232 216 214 229 238 254 264 228 153 171 179 180 173 170 167 162 161 165 171 168 158 157 154 147 146 145 149 146 150 144 138 140 141 150 146 138 162 164 162 160 157
353 257 237 229 238 236 244 250 256 288 256 143 157 198 190 179 178 174 172 176 170 163 157 160 158 157 154 154 154 153 156 157 158 160 158 152 152 159 154 146 134 150 154 164
223 247 242 226 231 236 246 214 214 225 300 38 98 350 203 205 167 168 173 176 174 170 166 163 162 162 159 160 162 161 163 161 163 155 132 116 93 80 77 79 119 167 153 157
253 261 261 251 233 208 246 230 213 199 113 260 129 216 259 205 193 181 178 177 180 172 165 164 165 165 165 166 161 159 159 160 161 155 148 148 151 159 179 175 171 175 159 158
263 269 269 260 248 197 223 224 197 158 140 73 3 140 271 202 197 204 192 184 177 171 169 168 167 167 167 165 162 161 154 157 159 156 157 152 156 161 150 137 133 134 103 131
258 267 237 236 258 209 188 54 35 53 74 3 254 167 258 212 203 204 198 191 177 172 173 169 166 163 162 163 159 156 155 162 162 159 156 158 159 152 139 135 141 150 135 99
300 291 268 234 311 323 80 83 34 5 19 260 270 191 243 230 204 192 195 192 178 167 167 165 163 166 167 165 163 161 161 167 168 164 162 162 159 153 157 160 162 157 154 152
255 288 275 246 192 199 184 133 151 184 217 275 313 243 259 249 201 177 170 166 160 159 162 163 166 169 169 168 165 164 167 170 169 166 165 161 157 157 162 161 157 167 179 181
190 255 279 276 227 157 158 167 162 136 161 256 284 291 313 3 94 131 151 152 160 161 162 163 166 167 167 167 170 170 169 170 173 171 162 160 162 159 158 154 150 158 166 160
169 240 287 294 24 65 160 153 95 111 147 245 287 268 237 235 189 157 151 154 162 156 157 160 162 168 167 168 167 168 169 171 172 166 164 162 160 159 154 147 153 159 161 152
155 169 297 350 137 213 131 106 114 123 149 152 240 267 232 208 180 162 164 157 159 165 163 165 169 169 166 159 162 165 168 163 162 164 161 158 159 156 148 152 162 161 165 166
165 132 250 268 263 208 162 174 143 145 197 159 170 261 269 191 170 150 146 146 148 157 159 159 162 158 157 162 163 165 165 164 168 166 160 160 157 148 147 160 180 175 173 175
135 114 82 335 335 350 18 190 146 136 130 152 168 259 295 142 132 134 140 148 149 140 138 142 143 151 158 165 165 167 169 168 163 157 156 158 159 158 167 174 179 179 175 172
119 118 158 193 222 234 303 311 142 125 148 181 206 230 275 184 152 144 148 153 144 139 136 137 138 138 139 146 161 161 161 157 155 153 159 166 174 177 179 177 179 183 175 166
100 131 187 208 218 167 271 281 272 160 178 174 204 202 216 196 179 166 152 144 135 134 137 146 148 143 139 136 138 147 151 154 157 157 168 180 181 178 175 173 180 180 178 173
79 132 101 342 350 39 341 313 305 212 176 175 169 215 216 165 135 133 139 136 137 142 147 150 144 141 146 153 157 148 148 156 151 158 176 183 177 170 174 179 178 178 191 182
69 111 102 279 312 36 324 289 216 99 173 163 184 207 155 127 147 153 149 138 141 144 148 151 150 150 160 167 157 151 156 150 144 158 175 180 180 178 183 181 176 190 198 185
138 112 128 156 59 216 241 245 141 109 45 115 137 150 147 152 152 139 143 141 145 143 137 140 140 139 148 146 145 144 138 141 154 167 180 183 175 176 182 182 194 202 195 192
148 140 127 129 174 255 300 312 309 117 342 54 124 128 130 114 85 45 134 147 153 148 142 143 146 141 135 130 133 136 133 141 148 171 178 180 177 178 190 201 206 204 191 202
67 105 120 131 151 221 261 291 286 95 330 294 141 141 141 112 113 232 195 140 132 130 133 138 133 120 125 134 133 132 152 158 183 200 194 187 179 184 198 205 206 201 193 201
23 36 95 144 180 254 281 315 35 106 231 280 132 134 133 139 178 187 167 139 130 132 134 130 127 129 145 142 130 132 161 196 206 203 186 187 190 197 207 208 206 199 194 193
136 112 117 119 124 260 304 13 91 207 207 78 78 96 108 109 107 118 129 131 125 126 129 135 137 143 152 149 141 150 191 214 198 178 183 207 216 216 209 200 213 200 192 194
129 175 172 169 199 245 301 117 147 122 102 87 88 94 109 111 119 125 124 126 128 137 142 146 149 152 159 167 161 167 198 191 178 182 208 231 239 229 205 195 204 197 195 207
330 28 81 55 0 358 47 55 53 88 105 102 99 98 101 108 117 127 127 129 133 137 136 124 131 165 191 192 186 190 198 186 171 188 213 226 223 247 245 222 200 196 206 213
276 30 72 99 263 354 357 13 97 83 89 89 89 97 107 115 132 139 133 138 140 135 146 154 170 196 211 207 206 206 188 163 165 192 210 220 224 226 242 242 230 213 215 207
281 168 159 214 230 181 250 300 80 90 97 102 105 98 96 124 135 120 119 142 142 136 145 156 173 182 197 193 206 228 191 164 166 192 219 227 229 228 226 230 278 279 249 246